[Iaude] MPEC O24: 2017 CE60 [a=42.48,e=0.50,i=24.7,H=8.4]
    mpec at cfa.harvard.edu 
    mpec at cfa.harvard.edu
       
    Sat Jul 20 04:44:38 EDT 2024
    
    
  
M.P.E.C. 2024-O24                                 Issued 2024 July 20, 08:43 UT
     The Minor Planet Electronic Circulars contain information on unusual
         minor planets, routine data on comets and natural satellites,
         and occasional editorial announcements.  They are published
    on behalf of Division F of the International Astronomical Union by the
          Minor Planet Center, Smithsonian Astrophysical Observatory,
                          Cambridge, MA 02138, U.S.A.
			  
             Prepared using the Tamkin Foundation Computer Network
                              MPC at CFA.HARVARD.EDU
            URL https://www.minorplanetcenter.net/    ISSN 1523-6714
                                   2017 CE60                                    
Observations:
     K17C60E 5C2003 01 03.39625206 48 46.34 -01 32 05.8                WEO024T14
     K17C60E 5C2003 01 03.40124506 48 46.30 -01 32 05.7                WEO024T14
     K17C60E 5C2003 01 29.35923306 45 29.62 -01 19 23.6                WEO024T14
     K17C60E 5C2003 01 29.36396506 45 29.58 -01 19 23.4                WEO024T14
     K17C60E &C2014 02 11.15408608 58 26.88 +00 27 07.8          22.2 zWEO024W84
     K17C60E &C2014 02 11.15789208 58 26.86 +00 27 07.8          22.5 zWEO024W84
     K17C60E &C2014 02 11.16169408 58 26.84 +00 27 08.1          22.5 zWEO024W84
     K17C60E &C2014 02 11.16552508 58 26.81 +00 27 08.2          22.3 zWEO024W84
     K17C60E &C2014 02 11.17314208 58 26.75 +00 27 08.6          22.4 zWEO024W84
     K17C60E 1C2015 01 16.47111209 10 46.85 +00 19 54.2                WEO024T09
     K17C60E &C2015 02 18.17588809 07 21.71 +00 38 20.7          23.7 gWEO024W84
     K17C60E 1C2016 01 12.35382209 20 22.60 +00 24 48.7                WEO024T09
     K17C60E 1C2016 01 12.36708509 20 22.53 +00 24 48.9                WEO024T09
     K17C60E &C2016 01 14.28050809 20 11.92 +00 25 27.0          23.1 rWEO024W84
     K17C60E 4C2016 11 28.56332 09 31 32.90 +00 30 05.5          23.8 r1EO024T09
     K17C60E 4C2016 11 28.58230 09 31 32.88 +00 30 05.0          23.5 r1EO024T09
     K17C60E 4C2016 11 28.63097 09 31 32.82 +00 30 04.4          23.6 r1EO024T09
     K17C60E 1C2017 01 02.41826909 29 57.04 +00 28 34.5                WEO024T09
     K17C60E 1C2017 01 28.40613009 27 36.67 +00 37 52.7                WEO024T09
     K17C60E*4C2017 02 01.49788 09 27 11.84 +00 40 03.7          23.1 i1EO024T09
     K17C60E 4C2017 02 01.50344 09 27 11.81 +00 40 04.1          23.1 i1EO024T09
     K17C60E 4C2017 02 01.51720 09 27 11.72 +00 40 04.4          23.1 i1EO024T09
     K17C60E 4C2017 02 01.53911 09 27 11.58 +00 40 05.2          23.1 i1EO024T09
     K17C60E 4C2017 02 01.54461 09 27 11.54 +00 40 05.2          23.0 i1EO024T09
     K17C60E 4C2017 02 01.55276 09 27 11.50 +00 40 05.6          22.9 i1EO024T09
Observer details:
T09 Subaru Telescope, Maunakea.  Observers , H. Aihara, Y. AlSayyad, M. Ando,
    R. Armstrong, J. Bosch, E. Egami, H. Furusawa, J. Furusawa, S. Harasawa,
    Y. Harikane, B.-C. Hsieh, H. Ikeda, K. Ito, I. Iwata, T. Kodama, M. Koike,
    M. Kokubo, Y. Komiyama, X. Li, Y. Liang, Y.-T. Lin, R. H. Lupton, N. B.
    Lust, L. A. MacArthur, K. Mawatari, S. Mineo, H. Miyatake, S. Miyazaki, S.
    More, T. Morishima, H. Murayama, K. Nakajima, F. Nakata, A. J. Nishizawa,
    M. Oguri, N. Okabe, Y. Okura, Y. Ono, K. Osato, M. Ouchi, Y.-C. Pan, A. A.
    Plazas Malagon, P. A. Price, S. L. Reed, E. S. Rykoff, T. Shibuya, M.
    Simunovic, M. A. Strauss, K. Sugimori, Y. Suto, N. Suzuki, M. Takada, Y.
    Takagi, T. Takata, S. Takita, M. Tanaka, S. Tang, D. S. Taranu, T. Terai,
    Y. Toba, E. L. Turner, H. Uchiyama, B. Vijarnwannaluk, C. Z. Waters, Y.
    Yamada, N. Yamamoto, T. Yamashita.  Measurers S. Deen, A. Yamauchi.  8.3-m
    Subaru Telescope + CCD, 8.2-m f/2.0 reflector + CCD(HSC).
T14 Canada-France-Hawaii Telescope, Maunakea.  Observer C. Moutou.  Measurer
    S. Deen.  3.58-m Canada-France-Hawaii Telescope + CCD.
W84 Cerro Tololo-DECam.  Observers G. Rudnick, H. Yan.  Measurer S. Deen.
    4.0-m reflector + CCD.
Orbital elements:
2017 CE60                                                                       
Epoch 2024 Oct. 17.0 TT = JDT 2460600.5                 Alexandersen            
M  43.03390              (2000.0)            P               Q                  
n   0.00355957     Peri.  239.78483     +0.57920918     -0.81411136             
a  42.4819714      Node   174.26446     +0.81419356     +0.58026624             
e   0.5031922      Incl.   24.66604     -0.04006975     +0.02266707             
P 277              H    8.41          G   0.15           U   4                  
Residuals in seconds of arc
030103 T14  0.0   0.0     150116 T09  0.1+  0.0     170128 T09  0.0   0.0
030103 T14  0.0   0.0     150218 W84  0.1-  0.2+    170201 T09  0.0   0.0
030129 T14  0.1+  0.0     160112 T09  0.1+  0.0     170201 T09  0.1+  0.2+
030129 T14  0.1-  0.0     160112 T09  0.1+  0.1-    170201 T09  0.0   0.1+
140211 W84  0.0   0.1+    160114 W84  0.2-  0.1-    170201 T09  0.0   0.1+
140211 W84  0.0   0.1-    161128 T09  0.1+  0.0     170201 T09  0.1-  0.0
140211 W84  0.1+  0.0     161128 T09  0.0   0.2-    170201 T09  0.1+  0.1+
140211 W84  0.0   0.0     161128 T09  0.3-  0.1-
140211 W84  0.1-  0.1+    170102 T09  0.1+  0.0
Ephemeris:
2017 CE60                a,e,i = 42.48, 0.50, 25                 q = 21.1054
Date    TT    R. A. (2000) Decl.     Delta      r    Elong.  Phase     V
2024 06 20    10 15 55.1 +02 20 33  35.4385 35.0443    66.4     1.5    24.1
...
2024 07 05    10 17 02.1 +02 18 50  35.6758 35.0670    52.6     1.3    24.1
...
2024 07 13    10 17 44.9 +02 16 59  35.7876 35.0790    45.2     1.2    24.1
...
2024 07 19    10 18 19.7 +02 15 13  35.8633 35.0881    39.8     1.1    24.1
2024 07 20    10 18 25.7 +02 14 54  35.8752 35.0896    38.8     1.0    24.1
2024 07 21    10 18 31.8 +02 14 33  35.8868 35.0911    37.9     1.0    24.1
...
2024 07 27    10 19 09.2 +02 12 22  35.9522 35.1002    32.5     0.9    24.1
...
2024 08 04    10 20 01.6 +02 09 01  36.0262 35.1122    25.4     0.7    24.0
...
2024 08 19    10 21 45.2 +02 01 34  36.1209 35.1348    12.8     0.4    24.0
M. P. C. Staff               (C) Copyright 2024 MPC           M.P.E.C. 2024-O24
    
    
More information about the Iaude
mailing list